| time (UTC) | temp C | wind direction | speed KPH | gust KPH | rain 1hr cm | rain 24hr cm | rain mn cm | humidity % | barometer mb |
| 20260904124532 | 15 | 277 | 6.4 | 20.9 | 0.03 | 0.84 | 0.15 | 94 | 998.8 |
| 20260904123034 | 15 | 292 | 6.4 | 22.5 | 0.05 | 0.84 | 0.15 | 94 | 998.9 |
| 20260904121531 | 15 | 305 | 6.4 | 16.1 | 0.05 | 0.84 | 0.15 | 94 | 998.8 |
| 20260904120038 | 15 | 286 | 3.2 | 12.9 | 0.08 | 0.84 | 0.15 | 94 | 999.0 |
| 20260904114526 | 15 | 275 | 8.0 | 14.5 | 0.10 | 0.84 | 0.13 | 94 | 999.2 |
| 20260904113026 | 15 | 291 | 9.7 | 22.5 | 0.08 | 0.81 | 0.10 | 93 | 999.4 |
| 20260904111524 | 15 | 247 | 16.1 | 32.2 | 0.05 | 0.79 | 0.08 | 93 | 999.4 |
| 20260904110024 | 15 | 233 | 6.4 | 16.1 | 0.05 | 0.79 | 0.05 | 93 | 999.4 |
| 20260904104529 | 15 | 219 | 8.0 | 17.7 | 0.00 | 0.71 | 0.03 | 93 | 999.5 |
| 20260904103025 | 15 | 244 | 6.4 | 16.1 | 0.00 | 0.71 | 0.03 | 93 | 999.6 |
| 20260904101520 | 15 | 222 | 3.2 | 12.9 | 0.00 | 0.71 | 0.03 | 93 | 999.7 |
| 20260904100121 | 15 | 246 | 4.8 | 14.5 | 0.03 | 0.71 | 0.03 | 93 | 999.9 |
| 20260904094517 | 15 | 213 | 3.2 | 16.1 | 0.03 | 0.76 | 0.03 | 93 | 1000.0 |
| 20260904093015 | 15 | 214 | 4.8 | 14.5 | 0.03 | 0.76 | 0.03 | 93 | 1000.2 |
| 20260904091511 | 15 | 215 | 8.0 | 16.1 | 0.03 | 0.76 | 0.03 | 93 | 1000.3 |
| 20260904090007 | 15 | 227 | 3.2 | 6.4 | 0.00 | 0.71 | 0.00 | 93 | 1000.5 |
| 20260904084505 | 15 | 211 | 3.2 | 14.5 | 0.00 | 0.71 | 0.00 | 93 | 1000.8 |
| 20260904083004 | 15 | 208 | 4.8 | 9.7 | 0.00 | 0.71 | 0.00 | 93 | 1001.0 |
| 20260904081600 | 14 | 217 | 3.2 | 8.0 | 0.00 | 0.71 | 0.00 | 93 | 1001.2 |
| 20260904080057 | 14 | 227 | 3.2 | 11.3 | 0.00 | 0.71 | 0.00 | 93 | 1001.4 |
| 20260904074602 | 14 | 234 | 3.2 | 11.3 | 0.00 | 0.76 | 0.00 | 93 | 1001.5 |
| 20260904073054 | 14 | 209 | 8.0 | 14.5 | 0.00 | 0.76 | 0.00 | 93 | 1001.6 |
| 20260904071605 | 14 | 239 | 3.2 | 8.0 | 0.00 | 0.76 | 0.00 | 93 | 1001.8 |
| 20260904070051 | 14 | 230 | 3.2 | 6.4 | 0.00 | 0.76 | 0.00 | 93 | 1002.0 |
| 20260904064549 | 13 | 217 | 3.2 | 14.5 | 0.00 | 0.79 | 0.00 | 93 | 1002.2 |
| 20260904063046 | 13 | 234 | 3.2 | 12.9 | 0.00 | 0.79 | 0.00 | 93 | 1002.2 |
| 20260904061543 | 13 | 208 | 8.0 | 14.5 | 0.00 | 0.79 | 0.00 | 93 | 1002.4 |
| 20260904060042 | 13 | 215 | 6.4 | 12.9 | 0.00 | 0.79 | 0.00 | 93 | 1002.7 |
| 20260904054542 | 13 | 205 | 3.2 | 9.7 | 0.00 | 0.81 | 0.00 | 93 | 1002.7 |
| 20260904053042 | 13 | 182 | 4.8 | 9.7 | 0.00 | 0.81 | 0.00 | 93 | 1002.9 |
| 20260904051537 | 13 | 178 | 4.8 | 8.0 | 0.00 | 0.81 | 0.00 | 92 | 1003.3 |
| 20260904050037 | 13 | 194 | 4.8 | 9.7 | 0.00 | 0.81 | 0.00 | 92 | 1003.4 |
| 20260904044534 | 13 | 197 | 6.4 | 9.7 | 0.00 | 0.81 | 0.00 | 92 | 1003.4 |
| 20260904043031 | 13 | 212 | 4.8 | 11.3 | 0.00 | 0.81 | 0.00 | 91 | 1003.7 |
| 20260904041529 | 13 | 219 | 3.2 | 14.5 | 0.00 | 0.81 | 0.00 | 91 | 1003.8 |
| 20260904040035 | 13 | 240 | 3.2 | 11.3 | 0.00 | 0.81 | 0.00 | 91 | 1003.9 |
| 20260904034533 | 13 | 245 | 3.2 | 14.5 | 0.00 | 0.81 | 0.00 | 91 | 1004.1 |
| 20260904033026 | 13 | 234 | 3.2 | 11.3 | 0.00 | 0.81 | 0.00 | 91 | 1004.1 |
| 20260904031524 | 13 | 235 | 6.4 | 14.5 | 0.00 | 0.81 | 0.00 | 91 | 1004.4 |
| 20260904030024 | 13 | 230 | 3.2 | 12.9 | 0.00 | 0.81 | 0.00 | 91 | 1004.5 |
| 20260904024524 | 13 | 251 | 4.8 | 14.5 | 0.00 | 0.84 | 0.00 | 91 | 1004.6 |
| 20260904023021 | 13 | 250 | 4.8 | 16.1 | 0.00 | 0.84 | 0.00 | 91 | 1004.8 |
| 20260904021519 | 13 | 260 | 3.2 | 12.9 | 0.00 | 0.84 | 0.00 | 91 | 1004.9 |
| 20260904020018 | 13 | 264 | 6.4 | 20.9 | 0.00 | 0.84 | 0.00 | 91 | 1005.1 |
| 20260904014525 | 13 | 269 | 3.2 | 17.7 | 0.00 | 0.84 | 0.00 | 91 | 1005.0 |
| 20260904013020 | 13 | 296 | 4.8 | 14.5 | 0.00 | 0.84 | 0.00 | 91 | 1005.4 |
| 20260904011527 | 13 | 272 | 4.8 | 16.1 | 0.00 | 0.84 | 0.00 | 91 | 1005.6 |
| 20260904010013 | 13 | 270 | 12.9 | 22.5 | 0.00 | 0.84 | 0.00 | 91 | 1005.6 |
| 20260904004510 | 13 | 282 | 16.1 | 25.7 | 0.00 | 0.84 | 0.00 | 91 | 1005.6 |
| 20260904003012 | 14 | 284 | 8.0 | 20.9 | 0.00 | 0.84 | 0.00 | 92 | 1005.8 |
| 20260904001504 | 14 | 264 | 8.0 | 19.3 | 0.00 | 0.84 | 0.00 | 92 | 1005.7 |
| 20260904000003 | 14 | 265 | 9.7 | 22.5 | 0.00 | 0.84 | 0.00 | 92 | 1005.8 |
| 20260903234502 | 14 | 252 | 6.4 | 20.9 | 0.00 | 0.84 | 0.00 | 92 | 1005.7 |
| 20260903233001 | 14 | 264 | 8.0 | 20.9 | 0.00 | 0.84 | 0.00 | 92 | 1005.8 |
| 20260903231559 | 14 | 271 | 6.4 | 20.9 | 0.00 | 0.84 | 0.00 | 92 | 1005.7 |
| 20260903230056 | 14 | 269 | 8.0 | 17.7 | 0.00 | 0.84 | 0.00 | 92 | 1006.0 |
| 20260903224554 | 14 | 260 | 6.4 | 19.3 | 0.00 | 0.84 | 0.00 | 92 | 1005.8 |
| 20260903223056 | 14 | 281 | 4.8 | 16.1 | 0.00 | 0.84 | 0.00 | 92 | 1005.8 |
| 20260903221551 | 14 | 259 | 4.8 | 16.1 | 0.00 | 0.84 | 0.00 | 92 | 1005.8 |
| 20260903214548 | 14 | 274 | 6.4 | 20.9 | 0.00 | 0.84 | 0.84 | 92 | 1006.1 |
| 20260903213049 | 14 | 271 | 8.0 | 17.7 | 0.00 | 0.84 | 0.84 | 92 | 1006.0 |
| 20260903211546 | 15 | 250 | 8.0 | 17.7 | 0.00 | 0.84 | 0.84 | 91 | 1005.9 |
| 20260903210055 | 15 | 279 | 17.7 | 25.7 | 0.00 | 0.84 | 0.84 | 91 | 1005.9 |
| 20260903204546 | 15 | 275 | 16.1 | 27.4 | 0.00 | 0.84 | 0.84 | 91 | 1006.0 |
| 20260903203046 | 15 | 275 | 12.9 | 27.4 | 0.00 | 0.84 | 0.84 | 91 | 1006.1 |
| 20260903201545 | 15 | 285 | 16.1 | 25.7 | 0.00 | 0.84 | 0.84 | 90 | 1006.1 |
| 20260903200045 | 15 | 281 | 17.7 | 30.6 | 0.00 | 0.84 | 0.84 | 91 | 1006.2 |
| 20260903194549 | 15 | 276 | 19.3 | 35.4 | 0.00 | 0.84 | 0.84 | 91 | 1006.0 |
| 20260903193052 | 15 | 253 | 16.1 | 29.0 | 0.00 | 0.84 | 0.84 | 92 | 1006.1 |
| 20260903191545 | 15 | 257 | 11.3 | 22.5 | 0.00 | 0.84 | 0.84 | 92 | 1006.3 |
| 20260903190047 | 15 | 284 | 14.5 | 29.0 | 0.00 | 0.84 | 0.84 | 92 | 1006.4 |
| 20260903184542 | 15 | 259 | 17.7 | 29.0 | 0.00 | 0.84 | 0.84 | 92 | 1006.1 |
| 20260903183045 | 16 | 290 | 16.1 | 25.7 | 0.00 | 0.84 | 0.84 | 92 | 1006.0 |
| 20260903181540 | 16 | 284 | 20.9 | 33.8 | 0.00 | 0.84 | 0.84 | 92 | 1006.0 |
| 20260903180038 | 16 | 275 | 20.9 | 32.2 | 0.00 | 0.84 | 0.84 | 92 | 1005.9 |
| 20260903174537 | 16 | 281 | 20.9 | 35.4 | 0.00 | 0.84 | 0.84 | 92 | 1005.7 |
| 20260903173038 | 16 | 294 | 27.4 | 40.2 | 0.00 | 0.84 | 0.84 | 92 | 1005.5 |
| 20260903171532 | 16 | 283 | 22.5 | 38.6 | 0.00 | 0.84 | 0.84 | 92 | 1005.2 |
| 20260903170033 | 17 | 275 | 14.5 | 27.4 | 0.00 | 0.84 | 0.84 | 91 | 1005.1 |
| 20260903164529 | 17 | 288 | 11.3 | 24.1 | 0.00 | 0.84 | 0.84 | 91 | 1004.9 |
| 20260903163029 | 17 | 311 | 17.7 | 33.8 | 0.00 | 0.84 | 0.84 | 90 | 1004.8 |
| 20260903161528 | 17 | 279 | 27.4 | 41.8 | 0.00 | 0.84 | 0.84 | 90 | 1004.6 |
| 20260903160028 | 18 | 304 | 17.7 | 38.6 | 0.00 | 0.84 | 0.84 | 92 | 1004.6 |
| 20260903154527 | 18 | 281 | 20.9 | 29.0 | 0.00 | 0.84 | 0.84 | 92 | 1004.4 |
| 20260903153026 | 18 | 290 | 19.3 | 40.2 | 0.00 | 0.84 | 0.84 | 92 | 1004.5 |
| 20260903151530 | 18 | 261 | 30.6 | 46.7 | 0.00 | 0.84 | 0.84 | 92 | 1004.5 |
| 20260903150039 | 18 | 284 | 16.1 | 33.8 | 0.30 | 0.84 | 0.84 | 93 | 1004.4 |
| 20260903144524 | 18 | 265 | 19.3 | 41.8 | 0.30 | 0.84 | 0.84 | 94 | 1004.4 |
| 20260903143036 | 18 | 258 | 12.9 | 29.0 | 0.30 | 0.84 | 0.84 | 94 | 1004.3 |
| 20260903141531 | 17 | 235 | 12.9 | 24.1 | 0.28 | 0.81 | 0.81 | 94 | 1004.5 |
| 20260903140021 | 18 | 265 | 14.5 | 20.9 | 0.03 | 0.53 | 0.53 | 94 | 1004.5 |
| 20260903134535 | 17 | 229 | 8.0 | 19.3 | 0.03 | 0.53 | 0.53 | 95 | 1004.5 |
| 20260903133015 | 17 | 219 | 11.3 | 24.1 | 0.20 | 0.53 | 0.53 | 95 | 1004.6 |
| 20260903131513 | 17 | 175 | 8.0 | 12.9 | 0.38 | 0.53 | 0.53 | 95 | 1004.8 |
| 20260903130013 | 17 | 157 | 6.4 | 16.1 | 0.38 | 0.51 | 0.51 | 95 | 1004.8 |